Location: Warren
(41.8440°N, 79.1450°W)
Time: 12:45:31
(UTC-04:00)

Envisat - Visible Passes

Search period start: 20 July 2018 00:00
Search period end: 30 July 2018 00:00
Orbit: 764 x 766 km, 98.2° (Epoch: 20 July)

Date Brightness Start Highest point End Pass type
(mag) Time Alt. Az. Time Alt. Az. Time Alt. Az.
20 Jul 4.6 21:08:36 10° SSW 21:13:13 35° W 21:17:52 10° NNW visible
22 Jul 5.5 21:35:15 10° SW 21:38:58 20° W 21:42:44 10° NW visible
24 Jul 5.9 22:03:18 10° WSW 22:04:51 11° W 22:06:23 10° WNW visible
25 Jul 5.2 21:23:32 10° SSW 21:27:43 26° W 21:31:56 10° NW visible
27 Jul 5.7 21:50:46 10° WSW 21:53:32 15° W 21:56:20 10° WNW visible
28 Jul 4.8 21:11:58 10° SSW 21:16:28 32° W 21:21:01 10° NNW visible
